| time (UTC) | temp F | wind direction | speed MPH | gust MPH | rain 1hr in | rain 24hr in | rain mn in | humidity % | barometer mb |
| 20260508122512 | 55 | 5 | 1.0 | 4.0 | 0.00 | 0.33 | 0.00 | 93 | 1016.3 |
| 20260508122013 | 54 | 347 | 0.0 | 4.0 | 0.00 | 0.33 | 0.00 | 95 | 1016.3 |
| 20260508121013 | 54 | 17 | 2.0 | 5.0 | 0.00 | 0.33 | 0.00 | 94 | 1016.2 |
| 20260508120612 | 54 | 342 | 0.0 | 6.0 | 0.00 | 0.33 | 0.00 | 94 | 1016.0 |
| 20260508120011 | 54 | 12 | 2.0 | 6.0 | 0.00 | 0.33 | 0.00 | 94 | 1015.9 |
| 20260508115510 | 54 | 44 | 1.0 | 5.0 | 0.00 | 0.56 | 0.00 | 95 | 1015.8 |
| 20260508115009 | 54 | 54 | 2.0 | 4.0 | 0.00 | 0.56 | 0.00 | 95 | 1015.9 |
| 20260508114509 | 54 | 58 | 1.0 | 4.0 | 0.00 | 0.56 | 0.00 | 96 | 1015.8 |
| 20260508114012 | 54 | 98 | 0.0 | 4.0 | 0.00 | 0.56 | 0.00 | 97 | 1015.7 |
| 20260508113507 | 53 | 325 | 0.0 | 4.0 | 0.00 | 0.56 | 0.00 | 97 | 1015.6 |
| 20260508113110 | 53 | 338 | 0.0 | 4.0 | 0.00 | 0.56 | 0.00 | 97 | 1015.5 |
| 20260508112504 | 53 | 360 | 0.0 | 2.0 | 0.00 | 0.56 | 0.00 | 97 | 1015.5 |
| 20260508112005 | 52 | 354 | 0.0 | 3.0 | 0.00 | 0.56 | 0.00 | 97 | 1015.3 |
| 20260508111005 | 52 | 68 | 0.0 | 1.0 | 0.00 | 0.56 | 0.00 | 97 | 1015.4 |
| 20260508110505 | 52 | 357 | 0.0 | 1.0 | 0.00 | 0.56 | 0.00 | 97 | 1015.5 |
| 20260508110003 | 52 | 357 | 0.0 | 2.0 | 0.00 | 0.56 | 0.00 | 98 | 1015.4 |
| 20260508105502 | 52 | 357 | 0.0 | 3.0 | 0.00 | 0.56 | 0.00 | 97 | 1015.1 |
| 20260508105001 | 52 | 61 | 0.0 | 5.0 | 0.00 | 0.56 | 0.00 | 98 | 1015.0 |
| 20260508104502 | 52 | 355 | 0.0 | 5.0 | 0.00 | 0.56 | 0.00 | 98 | 1014.9 |
| 20260508104001 | 52 | 56 | 0.0 | 5.0 | 0.00 | 0.56 | 0.00 | 98 | 1014.8 |
| 20260508103600 | 51 | 344 | 2.0 | 5.0 | 0.00 | 0.56 | 0.00 | 98 | 1014.8 |
| 20260508103501 | 52 | 344 | 1.0 | 5.0 | 0.00 | 0.56 | 0.00 | 98 | 1014.8 |
| 20260508103200 | 51 | 37 | 0.0 | 5.0 | 0.00 | 0.56 | 0.00 | 98 | 1014.7 |
| 20260508102558 | 52 | 359 | 0.0 | 4.0 | 0.00 | 0.56 | 0.00 | 98 | 1014.7 |
| 20260508102058 | 51 | 359 | 1.0 | 4.0 | 0.00 | 0.56 | 0.00 | 98 | 1014.5 |
| 20260508101055 | 51 | 62 | 0.0 | 4.0 | 0.00 | 0.56 | 0.00 | 98 | 1014.5 |
| 20260508100554 | 51 | 8 | 0.0 | 2.0 | 0.00 | 0.56 | 0.00 | 98 | 1014.3 |
| 20260508100054 | 51 | 10 | 0.0 | 5.0 | 0.00 | 0.56 | 0.00 | 98 | 1014.3 |
| 20260508095554 | 52 | 345 | 1.0 | 5.0 | 0.00 | 0.56 | 0.00 | 98 | 1014.3 |
| 20260508095053 | 52 | 285 | 0.0 | 4.0 | 0.00 | 0.56 | 0.00 | 98 | 1014.2 |
| 20260508094554 | 51 | 2 | 1.0 | 4.0 | 0.00 | 0.56 | 0.00 | 98 | 1014.1 |
| 20260508094050 | 51 | 18 | 1.0 | 8.0 | 0.00 | 0.56 | 0.00 | 98 | 1014.0 |
| 20260508093553 | 51 | 83 | 1.0 | 8.0 | 0.00 | 0.56 | 0.00 | 98 | 1013.8 |
| 20260508093050 | 51 | 341 | 1.0 | 7.0 | 0.00 | 0.56 | 0.00 | 98 | 1013.7 |
| 20260508092548 | 51 | 332 | 2.0 | 7.0 | 0.00 | 0.56 | 0.00 | 98 | 1013.7 |
| 20260508092051 | 51 | 269 | 0.0 | 3.0 | 0.00 | 0.56 | 0.00 | 98 | 1013.6 |
| 20260508091048 | 51 | 79 | 0.0 | 2.0 | 0.00 | 0.56 | 0.00 | 98 | 1013.5 |
| 20260508090550 | 51 | 228 | 0.0 | 1.0 | 0.00 | 0.56 | 0.00 | 98 | 1013.4 |
| 20260508090103 | 51 | 228 | 0.0 | 5.0 | 0.00 | 0.56 | 0.00 | 98 | 1013.3 |
| 20260508085545 | 51 | 40 | 1.0 | 5.0 | 0.00 | 0.59 | 0.00 | 98 | 1013.2 |
| 20260508085044 | 51 | 195 | 0.0 | 5.0 | 0.00 | 0.59 | 0.00 | 98 | 1013.1 |
| 20260508084544 | 51 | 27 | 0.0 | 5.0 | 0.00 | 0.59 | 0.00 | 98 | 1013.0 |
| 20260508084042 | 51 | 248 | 0.0 | 4.0 | 0.00 | 0.59 | 0.00 | 98 | 1013.0 |
| 20260508083543 | 51 | 52 | 0.0 | 4.0 | 0.00 | 0.59 | 0.00 | 98 | 1012.9 |
| 20260508083101 | 51 | 4 | 1.0 | 3.0 | 0.00 | 0.59 | 0.00 | 98 | 1012.8 |
| 20260508082543 | 51 | 329 | 0.0 | 2.0 | 0.00 | 0.59 | 0.00 | 98 | 1012.8 |
| 20260508082041 | 51 | 346 | 0.0 | 4.0 | 0.00 | 0.59 | 0.00 | 98 | 1012.6 |
| 20260508081044 | 51 | 276 | 0.0 | 3.0 | 0.00 | 0.59 | 0.00 | 98 | 1012.5 |
| 20260508080542 | 51 | 251 | 0.0 | 4.0 | 0.00 | 0.59 | 0.00 | 98 | 1012.4 |
| 20260508080043 | 51 | 27 | 1.0 | 4.0 | 0.00 | 0.59 | 0.00 | 98 | 1012.5 |
| 20260508075541 | 51 | 12 | 0.0 | 3.0 | 0.00 | 0.70 | 0.00 | 98 | 1012.5 |
| 20260508075040 | 51 | 70 | 1.0 | 3.0 | 0.00 | 0.70 | 0.00 | 98 | 1012.4 |
| 20260508074541 | 51 | 354 | 0.0 | 3.0 | 0.00 | 0.70 | 0.00 | 98 | 1012.4 |
| 20260508074040 | 51 | 355 | 0.0 | 2.0 | 0.00 | 0.70 | 0.00 | 98 | 1012.4 |
| 20260508073540 | 51 | 355 | 0.0 | 2.0 | 0.00 | 0.70 | 0.00 | 98 | 1012.5 |
| 20260508073039 | 51 | 355 | 0.0 | 2.0 | 0.00 | 0.70 | 0.00 | 98 | 1012.6 |
| 20260508072539 | 51 | 340 | 0.0 | 2.0 | 0.00 | 0.70 | 0.00 | 98 | 1012.7 |
| 20260508072039 | 51 | 86 | 0.0 | 2.0 | 0.00 | 0.70 | 0.00 | 98 | 1012.7 |
| 20260508071003 | 51 | 356 | 0.0 | 1.0 | 0.00 | 0.70 | 0.00 | 98 | 1012.7 |
| 20260508070506 | 51 | 356 | 0.0 | 1.0 | 0.00 | 0.70 | 0.00 | 98 | 1012.5 |
| 20260508070008 | 51 | 356 | 0.0 | 1.0 | 0.00 | 0.80 | 0.00 | 98 | 1012.4 |
| 20260508065501 | 51 | 356 | 0.0 | 0.0 | 0.00 | 0.80 | 0.00 | 97 | 1012.2 |
| 20260508065001 | 51 | 356 | 0.0 | 0.0 | 0.00 | 0.80 | 0.00 | 97 | 1012.3 |
| 20260508064501 | 51 | 356 | 0.0 | 0.0 | 0.00 | 0.80 | 0.00 | 97 | 1012.2 |
| 20260508064003 | 51 | 356 | 0.0 | 0.0 | 0.00 | 0.80 | 0.00 | 97 | 1012.1 |
| 20260508063601 | 51 | 356 | 0.0 | 1.0 | 0.00 | 0.80 | 0.00 | 97 | 1012.2 |
| 20260508063059 | 51 | 356 | 0.0 | 1.0 | 0.00 | 0.80 | 0.00 | 97 | 1012.1 |
| 20260508062559 | 52 | 356 | 0.0 | 1.0 | 0.00 | 0.80 | 0.00 | 97 | 1012.1 |
| 20260508062058 | 52 | 356 | 0.0 | 1.0 | 0.00 | 0.80 | 0.00 | 97 | 1012.1 |
| 20260508061035 | 52 | 356 | 0.0 | 1.0 | 0.00 | 0.80 | 0.00 | 97 | 1012.1 |
| 20260508060535 | 52 | 356 | 0.0 | 1.0 | 0.00 | 0.80 | 0.00 | 97 | 1012.3 |
| 20260508060035 | 52 | 32 | 0.0 | 1.0 | 0.00 | 0.80 | 0.00 | 97 | 1012.1 |
| 20260508055533 | 53 | 32 | 0.0 | 1.0 | 0.00 | 0.80 | 0.00 | 97 | 1012.0 |
| 20260508055032 | 53 | 283 | 0.0 | 2.0 | 0.00 | 0.80 | 0.00 | 97 | 1012.1 |
| 20260508054532 | 53 | 343 | 0.0 | 2.0 | 0.00 | 0.80 | 0.00 | 97 | 1011.9 |
| 20260508054031 | 53 | 78 | 0.0 | 1.0 | 0.00 | 0.80 | 0.00 | 97 | 1012.2 |
| 20260508053531 | 53 | 78 | 0.0 | 1.0 | 0.00 | 0.80 | 0.00 | 97 | 1012.2 |
| 20260508053031 | 53 | 78 | 0.0 | 2.0 | 0.00 | 0.80 | 0.00 | 97 | 1012.1 |
| 20260508052531 | 53 | 78 | 0.0 | 2.0 | 0.00 | 0.80 | 0.00 | 97 | 1012.2 |
| 20260508052030 | 53 | 78 | 0.0 | 2.0 | 0.00 | 0.80 | 0.00 | 97 | 1012.3 |
| 20260508051029 | 53 | 238 | 0.0 | 2.0 | 0.00 | 0.80 | 0.00 | 97 | 1012.5 |
| 20260508050528 | 53 | 2 | 0.0 | 2.0 | 0.00 | 0.80 | 0.00 | 97 | 1012.3 |
| 20260508050028 | 53 | 1 | 0.0 | 1.0 | 0.00 | 0.80 | 0.00 | 97 | 1012.2 |
| 20260508045529 | 53 | 1 | 0.0 | 1.0 | 0.00 | 0.80 | 0.00 | 97 | 1012.2 |
| 20260508045027 | 53 | 300 | 0.0 | 1.0 | 0.00 | 0.80 | 0.00 | 97 | 1012.1 |
| 20260508044527 | 53 | 300 | 0.0 | 1.0 | 0.00 | 0.80 | 0.00 | 97 | 1011.9 |
| 20260508044026 | 53 | 300 | 0.0 | 2.0 | 0.00 | 0.80 | 0.00 | 97 | 1011.7 |
| 20260508043525 | 53 | 348 | 0.0 | 2.0 | 0.00 | 0.80 | 0.00 | 97 | 1011.5 |
| 20260508043048 | 53 | 79 | 0.0 | 3.0 | 0.01 | 0.80 | 0.00 | 97 | 1011.6 |
| 20260508042525 | 53 | 3 | 0.0 | 1.0 | 0.04 | 0.80 | 0.00 | 97 | 1011.7 |
| 20260508042024 | 53 | 3 | 0.0 | 2.0 | 0.08 | 0.80 | 0.00 | 97 | 1011.7 |
| 20260508041022 | 53 | 322 | 0.0 | 4.0 | 0.08 | 0.80 | 0.00 | 96 | 1011.2 |
| 20260508040523 | 53 | 323 | 0.0 | 4.0 | 0.08 | 0.80 | 0.00 | 96 | 1011.4 |
| 20260508040023 | 53 | 250 | 0.0 | 1.0 | 0.08 | 0.80 | 0.00 | 96 | 1011.4 |
| 20260508035519 | 53 | 250 | 0.0 | 1.0 | 0.08 | 0.80 | 0.80 | 96 | 1011.3 |
| 20260508035019 | 53 | 250 | 0.0 | 1.0 | 0.08 | 0.80 | 0.80 | 96 | 1011.4 |
| 20260508034520 | 53 | 250 | 0.0 | 1.0 | 0.08 | 0.80 | 0.80 | 95 | 1011.5 |
| 20260508034020 | 54 | 250 | 0.0 | 4.0 | 0.08 | 0.80 | 0.80 | 95 | 1011.8 |
| 20260508033516 | 54 | 250 | 0.0 | 4.0 | 0.08 | 0.80 | 0.80 | 94 | 1011.6 |
| 20260508033015 | 54 | 221 | 0.0 | 7.0 | 0.08 | 0.80 | 0.80 | 94 | 1012.0 |
| 20260508032515 | 54 | 247 | 3.0 | 7.0 | 0.06 | 0.78 | 0.78 | 93 | 1012.1 |
| 20260508032015 | 55 | 348 | 0.0 | 3.0 | 0.00 | 0.72 | 0.72 | 92 | 1011.1 |
| 20260508031016 | 55 | 65 | 0.0 | 7.0 | 0.00 | 0.72 | 0.72 | 92 | 1010.7 |
| 20260508030520 | 55 | 66 | 0.0 | 5.0 | 0.00 | 0.72 | 0.72 | 92 | 1011.0 |
| 20260508030022 | 55 | 355 | 1.0 | 8.0 | 0.00 | 0.72 | 0.72 | 92 | 1011.1 |
| 20260508025515 | 55 | 63 | 2.0 | 11.0 | 0.00 | 0.72 | 0.72 | 92 | 1011.2 |
| 20260508025015 | 55 | 58 | 4.0 | 11.0 | 0.00 | 0.72 | 0.72 | 92 | 1011.3 |
| 20260508024514 | 55 | 68 | 2.0 | 6.0 | 0.00 | 0.72 | 0.72 | 93 | 1011.1 |
| 20260508024013 | 55 | 63 | 2.0 | 6.0 | 0.00 | 0.72 | 0.72 | 94 | 1011.1 |
| 20260508023514 | 55 | 8 | 1.0 | 10.0 | 0.00 | 0.72 | 0.72 | 94 | 1010.9 |
| 20260508023017 | 55 | 67 | 5.0 | 10.0 | 0.00 | 0.72 | 0.72 | 94 | 1010.9 |
| 20260508022516 | 55 | 17 | 3.0 | 8.0 | 0.00 | 0.72 | 0.72 | 95 | 1010.7 |
| 20260508022013 | 55 | 72 | 3.0 | 8.0 | 0.00 | 0.72 | 0.72 | 95 | 1010.6 |
| 20260508021010 | 55 | 54 | 4.0 | 12.0 | 0.00 | 0.72 | 0.72 | 95 | 1010.7 |
| 20260508020512 | 55 | 33 | 6.0 | 10.0 | 0.00 | 0.72 | 0.72 | 95 | 1010.4 |
| 20260508020009 | 55 | 336 | 3.0 | 9.0 | 0.00 | 0.72 | 0.72 | 95 | 1010.4 |
| 20260508015507 | 56 | 68 | 3.0 | 8.0 | 0.00 | 0.72 | 0.72 | 95 | 1010.4 |
| 20260508015006 | 56 | 349 | 3.0 | 8.0 | 0.00 | 0.72 | 0.72 | 95 | 1010.2 |
| 20260508014508 | 56 | 66 | 4.0 | 11.0 | 0.00 | 0.72 | 0.72 | 95 | 1010.2 |
| 20260508014006 | 56 | 13 | 5.0 | 11.0 | 0.00 | 0.72 | 0.72 | 94 | 1010.1 |
| 20260508013510 | 56 | 42 | 4.0 | 10.0 | 0.00 | 0.72 | 0.72 | 94 | 1009.8 |
| 20260508013005 | 56 | 52 | 5.0 | 10.0 | 0.00 | 0.72 | 0.72 | 94 | 1009.7 |
| 20260508012504 | 56 | 11 | 4.0 | 11.0 | 0.00 | 0.72 | 0.72 | 94 | 1009.8 |
| 20260508012004 | 56 | 45 | 5.0 | 11.0 | 0.00 | 0.72 | 0.72 | 93 | 1009.8 |
| 20260508011003 | 56 | 49 | 4.0 | 13.0 | 0.00 | 0.72 | 0.72 | 94 | 1009.6 |
| 20260508010502 | 57 | 24 | 2.0 | 10.0 | 0.00 | 0.72 | 0.72 | 94 | 1009.4 |
| 20260508010002 | 57 | 38 | 4.0 | 10.0 | 0.00 | 0.72 | 0.72 | 94 | 1009.2 |
| 20260508005503 | 57 | 15 | 2.0 | 12.0 | 0.00 | 0.72 | 0.72 | 94 | 1008.9 |
| 20260508005101 | 57 | 46 | 5.0 | 12.0 | 0.00 | 0.72 | 0.72 | 94 | 1009.0 |
| 20260508004604 | 57 | 30 | 5.0 | 12.0 | 0.00 | 0.72 | 0.72 | 94 | 1009.0 |
| 20260508004059 | 57 | 322 | 3.0 | 11.0 | 0.00 | 0.72 | 0.72 | 95 | 1008.9 |
| 20260508003602 | 57 | 51 | 5.0 | 9.0 | 0.00 | 0.72 | 0.72 | 95 | 1008.8 |
| 20260508003056 | 57 | 55 | 5.0 | 12.0 | 0.00 | 0.72 | 0.72 | 95 | 1008.7 |
| 20260508002556 | 58 | 359 | 5.0 | 12.0 | 0.00 | 0.72 | 0.72 | 95 | 1008.6 |
| 20260508002054 | 58 | 67 | 3.0 | 12.0 | 0.00 | 0.72 | 0.72 | 95 | 1008.8 |
| 20260508001052 | 59 | 347 | 3.0 | 13.0 | 0.00 | 0.72 | 0.72 | 94 | 1008.6 |
| 20260508000552 | 59 | 262 | 3.0 | 13.0 | 0.00 | 0.72 | 0.72 | 94 | 1008.6 |
| 20260508000049 | 60 | 53 | 3.0 | 13.0 | 0.00 | 0.72 | 0.72 | 94 | 1008.7 |
| 20260507235548 | 61 | 41 | 4.0 | 13.0 | 0.00 | 0.73 | 0.72 | 93 | 1008.7 |
| 20260507235050 | 62 | 360 | 3.0 | 13.0 | 0.00 | 0.73 | 0.72 | 93 | 1008.6 |
| 20260507234547 | 63 | 3 | 3.0 | 12.0 | 0.00 | 0.73 | 0.72 | 92 | 1008.3 |
| 20260507234044 | 65 | 350 | 5.0 | 18.0 | 0.00 | 0.73 | 0.72 | 92 | 1007.9 |
| 20260507233542 | 68 | 53 | 6.0 | 18.0 | 0.00 | 0.73 | 0.72 | 92 | 1007.6 |
| 20260507233042 | 69 | 283 | 0.0 | 1.0 | 0.00 | 0.73 | 0.72 | 95 | 1007.1 |
| 20260507232544 | 70 | 283 | 0.0 | 1.0 | 0.00 | 0.73 | 0.72 | 94 | 1006.9 |
| 20260507232041 | 70 | 283 | 0.0 | 2.0 | 0.00 | 0.73 | 0.72 | 93 | 1006.8 |
| 20260507231043 | 70 | 254 | 0.0 | 5.0 | 0.00 | 0.73 | 0.72 | 93 | 1006.7 |
| 20260507230543 | 70 | 253 | 1.0 | 5.0 | 0.00 | 0.73 | 0.72 | 93 | 1006.7 |
| 20260507230041 | 70 | 246 | 0.0 | 6.0 | 0.00 | 0.73 | 0.72 | 94 | 1006.8 |
| 20260507225541 | 70 | 249 | 1.0 | 5.0 | 0.00 | 0.73 | 0.72 | 94 | 1006.6 |
| 20260507225042 | 69 | 291 | 1.0 | 7.0 | 0.00 | 0.73 | 0.72 | 95 | 1006.6 |
| 20260507224541 | 69 | 257 | 2.0 | 7.0 | 0.00 | 0.73 | 0.72 | 95 | 1006.8 |
| 20260507224041 | 69 | 224 | 2.0 | 5.0 | 0.00 | 0.73 | 0.72 | 95 | 1006.9 |
| 20260507223543 | 69 | 295 | 1.0 | 6.0 | 0.00 | 0.73 | 0.72 | 94 | 1006.9 |
| 20260507223041 | 69 | 274 | 1.0 | 7.0 | 0.00 | 0.73 | 0.72 | 94 | 1006.9 |
| 20260507222541 | 69 | 263 | 3.0 | 9.0 | 0.00 | 0.73 | 0.72 | 94 | 1007.0 |
| 20260507222040 | 69 | 262 | 4.0 | 9.0 | 0.00 | 0.73 | 0.72 | 93 | 1007.0 |
| 20260507221043 | 70 | 300 | 4.0 | 8.0 | 0.00 | 0.73 | 0.72 | 92 | 1006.9 |
| 20260507220543 | 70 | 243 | 3.0 | 11.0 | 0.00 | 0.73 | 0.72 | 91 | 1007.0 |
| 20260507220040 | 70 | 282 | 2.0 | 7.0 | 0.00 | 0.73 | 0.72 | 91 | 1007.0 |
| 20260507215540 | 70 | 268 | 2.0 | 9.0 | 0.00 | 0.73 | 0.72 | 90 | 1007.0 |
| 20260507215040 | 71 | 227 | 3.0 | 12.0 | 0.00 | 0.73 | 0.72 | 89 | 1006.7 |
| 20260507214540 | 71 | 260 | 5.0 | 12.0 | 0.00 | 0.73 | 0.72 | 89 | 1006.6 |
| 20260507214039 | 71 | 222 | 4.0 | 17.0 | 0.00 | 0.73 | 0.72 | 88 | 1006.5 |
| 20260507213541 | 71 | 202 | 6.0 | 17.0 | 0.00 | 0.73 | 0.72 | 88 | 1006.5 |
| 20260507213041 | 72 | 236 | 4.0 | 10.0 | 0.00 | 0.73 | 0.72 | 89 | 1006.2 |
| 20260507212539 | 72 | 266 | 3.0 | 10.0 | 0.00 | 0.73 | 0.72 | 89 | 1006.2 |
| 20260507212038 | 72 | 236 | 4.0 | 12.0 | 0.00 | 0.73 | 0.72 | 88 | 1006.2 |
| 20260507211036 | 72 | 198 | 3.0 | 8.0 | 0.00 | 0.73 | 0.72 | 89 | 1006.2 |
| 20260507210537 | 71 | 236 | 2.0 | 8.0 | 0.00 | 0.73 | 0.72 | 91 | 1006.1 |
| 20260507210037 | 71 | 167 | 1.0 | 9.0 | 0.00 | 0.73 | 0.72 | 91 | 1006.2 |
| 20260507205535 | 70 | 230 | 1.0 | 9.0 | 0.00 | 0.73 | 0.72 | 90 | 1006.3 |
| 20260507205034 | 70 | 274 | 3.0 | 8.0 | 0.00 | 0.73 | 0.72 | 90 | 1006.4 |
| 20260507204535 | 71 | 245 | 2.0 | 8.0 | 0.00 | 0.73 | 0.72 | 89 | 1006.4 |
| 20260507204034 | 71 | 287 | 3.0 | 10.0 | 0.00 | 0.73 | 0.72 | 89 | 1006.4 |
| 20260507203534 | 71 | 294 | 3.0 | 11.0 | 0.00 | 0.73 | 0.72 | 89 | 1006.4 |
| 20260507203035 | 71 | 248 | 4.0 | 11.0 | 0.00 | 0.73 | 0.72 | 88 | 1006.6 |
| 20260507202534 | 71 | 264 | 3.0 | 8.0 | 0.00 | 0.73 | 0.72 | 88 | 1006.6 |
| 20260507202032 | 71 | 222 | 3.0 | 9.0 | 0.00 | 0.73 | 0.72 | 87 | 1006.7 |
| 20260507201032 | 72 | 236 | 3.0 | 9.0 | 0.00 | 0.73 | 0.72 | 89 | 1007.0 |
| 20260507200537 | 72 | 266 | 2.0 | 14.0 | 0.00 | 0.73 | 0.72 | 90 | 1006.9 |
| 20260507200034 | 72 | 217 | 3.0 | 11.0 | 0.00 | 0.73 | 0.72 | 90 | 1006.9 |
| 20260507195531 | 72 | 226 | 2.0 | 11.0 | 0.00 | 0.73 | 0.72 | 90 | 1006.9 |
| 20260507195032 | 73 | 211 | 2.0 | 9.0 | 0.00 | 0.73 | 0.72 | 91 | 1007.0 |
| 20260507194541 | 72 | 270 | 1.0 | 9.0 | 0.00 | 0.73 | 0.72 | 92 | 1007.0 |
| 20260507194028 | 71 | 261 | 3.0 | 11.0 | 0.00 | 0.73 | 0.72 | 91 | 1007.1 |
| 20260507193528 | 71 | 203 | 5.0 | 11.0 | 0.00 | 0.73 | 0.72 | 91 | 1007.2 |
| 20260507193031 | 71 | 267 | 5.0 | 10.0 | 0.00 | 0.73 | 0.72 | 91 | 1007.3 |
| 20260507192528 | 71 | 257 | 4.0 | 13.0 | 0.00 | 0.73 | 0.72 | 91 | 1007.3 |
| 20260507192026 | 71 | 229 | 7.0 | 13.0 | 0.01 | 0.73 | 0.72 | 90 | 1007.6 |
| 20260507191026 | 72 | 246 | 1.0 | 11.0 | 0.01 | 0.73 | 0.72 | 93 | 1007.7 |
| 20260507190524 | 71 | 250 | 3.0 | 11.0 | 0.01 | 0.73 | 0.72 | 93 | 1007.9 |
| 20260507190023 | 71 | 238 | 4.0 | 10.0 | 0.01 | 0.73 | 0.72 | 94 | 1008.0 |
| 20260507185522 | 71 | 237 | 4.0 | 13.0 | 0.02 | 0.73 | 0.72 | 94 | 1008.1 |
| 20260507185022 | 70 | 262 | 6.0 | 13.0 | 0.02 | 0.73 | 0.72 | 95 | 1008.2 |
| 20260507184522 | 69 | 238 | 4.0 | 13.0 | 0.03 | 0.73 | 0.72 | 96 | 1008.2 |
| 20260507184021 | 69 | 241 | 4.0 | 11.0 | 0.05 | 0.73 | 0.72 | 96 | 1008.3 |
| 20260507183522 | 69 | 277 | 3.0 | 10.0 | 0.07 | 0.73 | 0.72 | 96 | 1008.2 |
| 20260507183033 | 69 | 217 | 3.0 | 9.0 | 0.09 | 0.73 | 0.72 | 96 | 1008.3 |
| 20260507182520 | 68 | 294 | 4.0 | 11.0 | 0.10 | 0.73 | 0.72 | 96 | 1008.5 |
| 20260507182019 | 68 | 90 | 2.0 | 11.0 | 0.11 | 0.72 | 0.71 | 96 | 1008.6 |
| 20260507181022 | 68 | 245 | 4.0 | 11.0 | 0.12 | 0.72 | 0.71 | 95 | 1008.5 |
| 20260507180520 | 68 | 219 | 3.0 | 12.0 | 0.13 | 0.72 | 0.71 | 94 | 1008.7 |
| 20260507180020 | 68 | 257 | 6.0 | 13.0 | 0.13 | 0.72 | 0.71 | 94 | 1008.8 |
| 20260507175520 | 69 | 264 | 4.0 | 13.0 | 0.12 | 0.71 | 0.70 | 96 | 1009.0 |
| 20260507175018 | 69 | 251 | 4.0 | 17.0 | 0.12 | 0.71 | 0.70 | 96 | 1009.1 |
| 20260507174520 | 69 | 229 | 2.0 | 17.0 | 0.11 | 0.70 | 0.69 | 97 | 1009.4 |
| 20260507174017 | 69 | 195 | 4.0 | 16.0 | 0.11 | 0.70 | 0.69 | 97 | 1009.7 |
| 20260507173520 | 69 | 302 | 3.0 | 9.0 | 0.09 | 0.67 | 0.66 | 97 | 1009.8 |
| 20260507173018 | 69 | 225 | 2.0 | 8.0 | 0.08 | 0.65 | 0.64 | 97 | 1009.8 |
| 20260507172517 | 70 | 256 | 3.0 | 8.0 | 0.08 | 0.64 | 0.63 | 96 | 1009.7 |
| 20260507172017 | 69 | 245 | 2.0 | 9.0 | 0.09 | 0.63 | 0.62 | 96 | 1009.8 |
| 20260507171016 | 70 | 205 | 3.0 | 7.0 | 0.07 | 0.61 | 0.60 | 96 | 1009.9 |
| 20260507170515 | 70 | 203 | 1.0 | 7.0 | 0.06 | 0.59 | 0.57 | 96 | 1010.0 |
| 20260507170015 | 70 | 233 | 3.0 | 7.0 | 0.06 | 0.59 | 0.57 | 96 | 1009.9 |
| 20260507165514 | 70 | 248 | 2.0 | 6.0 | 0.06 | 0.59 | 0.57 | 96 | 1010.0 |
| 20260507165014 | 70 | 288 | 2.0 | 6.0 | 0.06 | 0.59 | 0.57 | 96 | 1009.8 |
| 20260507164514 | 70 | 226 | 2.0 | 4.0 | 0.06 | 0.59 | 0.57 | 96 | 1009.8 |
| 20260507164014 | 70 | 243 | 0.0 | 9.0 | 0.06 | 0.59 | 0.57 | 96 | 1009.8 |
| 20260507163514 | 70 | 271 | 3.0 | 7.0 | 0.06 | 0.59 | 0.57 | 96 | 1009.9 |
| 20260507163014 | 71 | 217 | 2.0 | 8.0 | 0.05 | 0.57 | 0.56 | 96 | 1010.1 |
| 20260507162515 | 71 | 288 | 2.0 | 8.0 | 0.04 | 0.56 | 0.56 | 96 | 1010.1 |
| 20260507162015 | 71 | 238 | 3.0 | 8.0 | 0.02 | 0.55 | 0.54 | 96 | 1010.3 |
| 20260507161013 | 71 | 228 | 3.0 | 11.0 | 0.01 | 0.54 | 0.53 | 95 | 1010.3 |
| 20260507160516 | 71 | 286 | 2.0 | 11.0 | 0.01 | 0.54 | 0.53 | 94 | 1010.3 |
| 20260507160025 | 72 | 248 | 2.0 | 9.0 | 0.00 | 0.53 | 0.52 | 94 | 1010.2 |
| 20260507155517 | 72 | 327 | 4.0 | 13.0 | 0.00 | 0.53 | 0.52 | 94 | 1010.3 |
| 20260507155012 | 72 | 202 | 5.0 | 13.0 | 0.00 | 0.53 | 0.52 | 94 | 1010.2 |
| 20260507154512 | 72 | 227 | 3.0 | 10.0 | 0.00 | 0.53 | 0.52 | 94 | 1010.2 |
| 20260507154011 | 72 | 259 | 3.0 | 11.0 | 0.00 | 0.53 | 0.52 | 94 | 1010.1 |
| 20260507153511 | 72 | 266 | 4.0 | 11.0 | 0.00 | 0.53 | 0.52 | 95 | 1010.0 |
| 20260507153011 | 72 | 294 | 4.0 | 11.0 | 0.00 | 0.53 | 0.52 | 95 | 1009.9 |
| 20260507152511 | 72 | 250 | 3.0 | 11.0 | 0.00 | 0.53 | 0.52 | 95 | 1010.0 |
| 20260507152011 | 72 | 290 | 3.0 | 7.0 | 0.00 | 0.53 | 0.52 | 95 | 1010.0 |
| 20260507151010 | 72 | 289 | 1.0 | 8.0 | 0.00 | 0.53 | 0.52 | 95 | 1009.7 |
| 20260507150513 | 72 | 282 | 2.0 | 8.0 | 0.00 | 0.53 | 0.52 | 96 | 1009.8 |
| 20260507150013 | 72 | 164 | 1.0 | 7.0 | 0.00 | 0.53 | 0.52 | 96 | 1009.7 |
| 20260507145509 | 72 | 234 | 0.0 | 8.0 | 0.00 | 0.53 | 0.52 | 96 | 1009.8 |
| 20260507145006 | 72 | 208 | 2.0 | 8.0 | 0.00 | 0.53 | 0.52 | 96 | 1009.8 |
| 20260507144509 | 72 | 289 | 3.0 | 9.0 | 0.00 | 0.53 | 0.52 | 96 | 1009.7 |
| 20260507144007 | 71 | 243 | 3.0 | 9.0 | 0.00 | 0.53 | 0.52 | 97 | 1009.8 |
| 20260507143505 | 71 | 246 | 1.0 | 10.0 | 0.00 | 0.53 | 0.52 | 97 | 1009.9 |
| 20260507143005 | 71 | 202 | 3.0 | 7.0 | 0.00 | 0.53 | 0.52 | 97 | 1010.0 |
| 20260507142505 | 71 | 270 | 3.0 | 7.0 | 0.01 | 0.53 | 0.52 | 97 | 1009.7 |
| 20260507142004 | 71 | 250 | 2.0 | 6.0 | 0.01 | 0.53 | 0.52 | 98 | 1009.4 |
| 20260507141006 | 71 | 245 | 1.0 | 5.0 | 0.01 | 0.53 | 0.52 | 98 | 1009.1 |
| 20260507140503 | 71 | 231 | 0.0 | 5.0 | 0.01 | 0.53 | 0.52 | 98 | 1009.1 |
| 20260507140000 | 70 | 244 | 0.0 | 3.0 | 0.01 | 0.53 | 0.52 | 98 | 1009.5 |
| 20260507135600 | 70 | 114 | 0.0 | 6.0 | 0.01 | 0.53 | 0.52 | 98 | 1009.7 |
| 20260507135058 | 70 | 264 | 2.0 | 7.0 | 0.01 | 0.53 | 0.52 | 98 | 1010.0 |
| 20260507134601 | 70 | 244 | 2.0 | 10.0 | 0.01 | 0.53 | 0.52 | 98 | 1010.2 |
| 20260507134056 | 70 | 242 | 2.0 | 10.0 | 0.01 | 0.53 | 0.52 | 98 | 1010.5 |
| 20260507133556 | 70 | 240 | 1.0 | 5.0 | 0.01 | 0.53 | 0.52 | 98 | 1010.6 |
| 20260507133101 | 70 | 250 | 0.0 | 4.0 | 0.01 | 0.53 | 0.52 | 98 | 1010.7 |
| 20260507132554 | 70 | 297 | 1.0 | 6.0 | 0.02 | 0.53 | 0.52 | 98 | 1010.8 |
| 20260507132054 | 70 | 233 | 2.0 | 7.0 | 0.02 | 0.52 | 0.51 | 98 | 1010.8 |
| 20260507131655 | 69 | 276 | 1.0 | 5.0 | 0.02 | 0.52 | 0.51 | 98 | 1010.9 |
| 20260507131055 | 69 | 219 | 0.0 | 6.0 | 0.02 | 0.52 | 0.51 | 98 | 1010.8 |
| 20260507130555 | 69 | 283 | 0.0 | 6.0 | 0.02 | 0.52 | 0.51 | 98 | 1011.1 |
| 20260507130056 | 69 | 259 | 0.0 | 4.0 | 0.04 | 0.52 | 0.51 | 98 | 1011.1 |
| 20260507125554 | 69 | 157 | 0.0 | 6.0 | 0.04 | 0.52 | 0.51 | 98 | 1011.0 |
| 20260507125054 | 69 | 252 | 1.0 | 6.0 | 0.05 | 0.52 | 0.51 | 98 | 1011.0 |
| 20260507124556 | 69 | 231 | 1.0 | 4.0 | 0.06 | 0.52 | 0.51 | 98 | 1011.2 |
| 20260507124054 | 69 | 148 | 0.0 | 4.0 | 0.06 | 0.52 | 0.51 | 99 | 1011.3 |
| 20260507123554 | 69 | 98 | 0.0 | 4.0 | 0.06 | 0.52 | 0.51 | 99 | 1011.3 |
| 20260507123111 | 69 | 193 | 1.0 | 4.0 | 0.08 | 0.52 | 0.51 | 98 | 1011.3 |